DELTA 1 DEB, 48088

Orbit data source: Space-Track

DELTA 1 DEB, 48088 is space debris in SSO originally from a launch on Thu, 29 Jul 1976 UTC launched from the Air Force Western Test Range (AFWTR). Debris objects in space refer to the collection of defunct objects orbiting the Earth. Examples of debris include non-operational satellites, rocket bodies, and fragments generated from explosions, collisions, or faulty payload assembly.

Loading next visibility...
Identifier
48088, 1976-077GT
Orbit
SSO
Country
Flag of USUS
Related business
Manufacturer
Unknown
Mission
Spacecraft
Bus & Motor
Unknown
Mass
Unknown
Launch date (UTC)
1976-07-29 (50 years ago)
Launch vehicle
Unknown
Launch site
Air Force Western Test Range (AFWTR)
Object type
Payload
Rocket body
Debris
Shape & HBR
Unknown shape, 0.1 m
Radar Cross Section
Small (<0.1 m²)

Expand to show TLE details & history
Last TLE update: 1 week ago

TLE from 1 week ago
0 DELTA 1 DEB
1 48088U 76077GT  26118.30656461 -.00000024  00000-0  17407-3 0  9993
2 48088 102.0619 152.1751 0115862  75.6389 346.5090 12.19249783553424
Epoch: 2026-04-28T07:21Z
TLE epoch observation values (Epoch: 2026-04-28T07:21:27.182Z)
Latitude
59.64684°
Longitude
164.23638°
Altitude
1,515.937 km
Speed
7.153 km/s
True Right ascension
08h 43m 32s
True Declination
59° 30' 40"
Sunlit
Object was in daylight at epoch
Visualization orbit readout
Latitude
Unknown
Longitude
Unknown
Altitude
Unknown
Speed
Unknown
Apparent Right ascension
Unknown
Apparent Declination
Unknown
Sunlit
N/A
Visualization observer readout
Local Sidereal Time
02:58:09
Azimuth
Unknown
Elevation
Unknown
Doppler factor
Unknown
Orbital elements
Apogee altitude
1,685.776 km
Perigee altitude
1,501.056 km
Semi-major axis
7,971.553 km
Eccentricity
0.01159
Inclination
102.0619°
RAAN
152.1751°
Arg. of periapsis
75.6389°
True anomaly
346.19484°
Mean anomaly
346.509°
Eccentric anomaly
346.35237°
Mean motion
3.0495 °/min
Orbital period
118.05 mins
BSTAR
0.00017407
Loading maneuver chart data...
Computing Atmospheric mass density...
Loading historical data...
Loading historical data...
Loading historical data...
Loading historical data...
Loading historical data...
Loading historical data...
Loading historical data...

Documentation

Showing up to 5 results
|